TimeEST,TemperatureF,Dew PointF,Humidity,Sea Level PressureIn,VisibilityMPH,Wind Direction,Wind SpeedMPH,Gust SpeedMPH,PrecipitationIn,Events,Conditions,WindDirDegrees,DateUTC
12:54 AM,43.0,28.9,58,30.23,10.0,NNW,6.9,-,N/A,,Clear,340,2013-03-09 05:54:00
1:54 AM,42.1,28.9,60,30.23,10.0,NW,6.9,-,N/A,,Clear,320,2013-03-09 06:54:00
2:54 AM,42.1,28.9,60,30.23,10.0,NW,8.1,-,N/A,,Clear,310,2013-03-09 07:54:00
3:54 AM,42.1,28.0,58,30.23,10.0,NW,10.4,-,N/A,,Clear,320,2013-03-09 08:54:00
4:54 AM,41.0,28.0,60,30.25,10.0,NNW,9.2,-,N/A,,Clear,330,2013-03-09 09:54:00
5:54 AM,41.0,28.0,60,30.25,10.0,NNW,9.2,-,N/A,,Clear,340,2013-03-09 10:54:00
6:54 AM,41.0,28.0,60,30.28,10.0,NNW,6.9,-,N/A,,Clear,330,2013-03-09 11:54:00
7:54 AM,43.0,28.9,58,30.28,10.0,North,12.7,-,N/A,,Clear,360,2013-03-09 12:54:00
8:54 AM,46.9,28.9,50,30.29,10.0,NNE,10.4,-,N/A,,Clear,20,2013-03-09 13:54:00
9:54 AM,51.1,27.0,39,30.29,10.0,North,6.9,-,N/A,,Clear,10,2013-03-09 14:54:00
10:54 AM,55.9,28.9,36,30.29,10.0,North,12.7,-,N/A,,Clear,350,2013-03-09 15:54:00
11:54 AM,59.0,30.9,35,30.28,10.0,North,13.8,-,N/A,,Clear,10,2013-03-09 16:54:00
12:54 PM,60.1,30.9,33,30.27,10.0,North,9.2,-,N/A,,Clear,10,2013-03-09 17:54:00
1:54 PM,62.1,30.9,31,30.25,10.0,NNE,10.4,-,N/A,,Clear,30,2013-03-09 18:54:00
2:54 PM,62.1,30.9,31,30.24,10.0,North,8.1,-,N/A,,Clear,10,2013-03-09 19:54:00
3:54 PM,63.0,30.0,29,30.24,10.0,North,3.5,-,N/A,,Clear,350,2013-03-09 20:54:00
4:54 PM,62.1,30.9,31,30.23,10.0,NNE,8.1,-,N/A,,Clear,20,2013-03-09 21:54:00
5:54 PM,57.0,33.1,40,30.25,10.0,North,4.6,-,N/A,,Clear,350,2013-03-09 22:54:00
6:54 PM,50.0,33.1,52,30.27,10.0,Calm,Calm,-,N/A,,Clear,0,2013-03-09 23:54:00
7:54 PM,46.0,33.1,61,30.29,10.0,Calm,Calm,-,N/A,,Clear,0,2013-03-10 00:54:00
8:54 PM,43.0,33.1,68,30.30,10.0,Calm,Calm,-,N/A,,Clear,0,2013-03-10 01:54:00
9:54 PM,39.9,34.0,79,30.30,10.0,Calm,Calm,-,N/A,,Clear,0,2013-03-10 02:54:00
10:54 PM,37.0,32.0,82,30.31,10.0,Calm,Calm,-,N/A,,Clear,0,2013-03-10 03:54:00
11:54 PM,37.0,32.0,82,30.30,10.0,Calm,Calm,-,N/A,,Clear,0,2013-03-10 04:54:00